4 May
2007
4 May
'07
10:53 p.m.
ISS 1 25544U 98067A 07124.68270509 .00017885 00000-0 10856-3 0 1434 2 25544 051.6339 328.6632 0010664 143.6648 302.9204 15.77550218483903
6440
Age (days ago)
6440
Last active (days ago)
0 comments
1 participants
participants (1)
-
Dave Larsen PhD